This is the latest recevied weather packets stored in our database for station/object KI4NG. If no packets are shown the sender has not sent any weather packets the latest 10 day(s).
| Time | Temp. | Humidity | Pressure | Rain* | Wind** | Luminosity | Snow |
|---|---|---|---|---|---|---|---|
| 1777947126 | 17.22° C | 68% | 1013 hPa | 0 mm | - | 0 W/m² | - |
| 1777946822 | 17.22° C | 68% | 1013 hPa | 0 mm | - | 0 W/m² | - |
| 1777946517 | 17.22° C | 68% | 1012.8 hPa | 0 mm | - | 0 W/m² | - |
| 1777946215 | 17.78° C | 67% | 1013 hPa | 0 mm | - | 0 W/m² | - |
| 1777945911 | 17.78° C | 66% | 1013 hPa | 0 mm | - | 0 W/m² | - |
| 1777945608 | 17.78° C | 65% | 1013.1 hPa | 0 mm | - | 0 W/m² | - |
| 1777945305 | 17.78° C | 65% | 1013 hPa | 0 mm | - | 0 W/m² | - |
| 1777945002 | 17.78° C | 65% | 1013.1 hPa | 0 mm | - | 0 W/m² | - |
| 1777944699 | 17.78° C | 68% | 1013.1 hPa | 0 mm | - | 0 W/m² | - |
| 1777944398 | 18.33° C | 65% | 1012.9 hPa | 0 mm | - | 0 W/m² | - |
| 1777944094 | 18.33° C | 63% | 1012.8 hPa | 0 mm | - | 0 W/m² | - |
| 1777943790 | 18.33° C | 65% | 1012.9 hPa | 0 mm | - | 0 W/m² | - |
| 1777943487 | 18.89° C | 64% | 1012.8 hPa | 0 mm | - | 0 W/m² | - |
| 1777943182 | 18.89° C | 64% | 1012.6 hPa | 0 mm | - | 0 W/m² | - |
| 1777942879 | 18.89° C | 62% | 1012.8 hPa | 0 mm | - | 0 W/m² | - |
| 1777942575 | 19.44° C | 63% | 1012.7 hPa | 0 mm | - | 0 W/m² | - |
| 1777942273 | 19.44° C | 62% | 1012.7 hPa | 0 mm | - | 0 W/m² | - |
| 1777941970 | 19.44° C | 62% | 1012.6 hPa | 0 mm | - | 0 W/m² | - |
| 1777941667 | 19.44° C | 63% | 1012.5 hPa | 0 mm | - | 0 W/m² | - |
| 1777941364 | 19.44° C | 62% | 1012.5 hPa | 0 mm | - | 0 W/m² | - |
| 1777941061 | 20° C | 63% | 1012.5 hPa | 0 mm | - | 1 W/m² | - |
| 1777940756 | 20° C | 62% | 1012.5 hPa | 0 mm | - | 3 W/m² | - |
| 1777940455 | 20.56° C | 60% | 1012.3 hPa | 0 mm | - | 5 W/m² | - |
| 1777940152 | 20.56° C | 59% | 1012.6 hPa | 0 mm | - | 6 W/m² | - |
| 1777939849 | 20.56° C | 60% | 1012.5 hPa | 0 mm | - | 8 W/m² | - |
* Rain latest hour (hover to see other rain measurements)
** Current wind speed in m/s (hover to see current wind gust speed)